Location: Home
(42.5358°N, 72.7383°W)
Time: 20:06:07
(UTC-04:00)

First-Move - Pass Details

Date: 17 August 2022
Orbit: 569 x 659 km, 97.6° (Epoch: 27 September)

Event Time Altitude Azimuth Distance (km) Brightness Sun altitude
Rises 04:44:29 0° 14° (NNE) 2,889 ? -13.3°
Reaches altitude 10° 04:46:42 10° 16° (NNE) 1,965 ? -13.0°
Maximum altitude 04:50:58 74° 101° (ESE) 624 ? -12.3°
Drops below altitude 10° 04:55:04 10° 187° (S) 1,899 ? -11.7°
Enters shadow 04:56:16 - 189° (S) 2,395 ? -11.5°
